Vitoria, Spain

11:14 AM CEST on September 30, 2016 (GMT +0200)
Foronda

Weather History for LEVT - March, 2013

Change the Weather History Date:

Sunday, March 24, 2013

  Actual Average Record
Temperature  
Mean Temperature 47 °F -  
Max Temperature 57 °F 58 °F 73 °F (2002)
Min Temperature 37 °F 37 °F 28 °F (1997)
Degree Days  
Heating Degree Days 18    
Moisture  
Dew Point 39 °F    
Average Humidity 76    
Maximum Humidity 100    
Minimum Humidity 48    
Precipitation  
Precipitation 0.00 in - - ()
Sea Level Pressure  
Sea Level Pressure 29.60 in    
Wind  
Wind Speed 5 mph ()    
Max Wind Speed 22 mph    
Max Gust Speed -    
Visibility 6.2 miles    
Events Rain    
Averages and records for this station are not official NWS values.
T = Trace of Precipitation, MM = Missing Value Source: Averaged Metar Reports

Daily Weather History Graph

Daily Weather History Graph

Search for Another Location

Airport or City:

Trip Planner

Search our weather history database for the weather conditions in past years. The results will help you decide how hot, cold, wet, or windy it might be!

Date:

Astronomy

Mar. 24, 2013 Rise Set
Actual Time 7:07 AM CET 7:27 PM CET
Civil Twilight 6:38 AM CET 7:56 PM CET
Nautical Twilight 6:05 AM CET 8:29 PM CET
Astronomical Twilight 5:31 AM CET 9:03 PM CET
Moon 4:37 PM CET (3/24) 5:13 AM CET (3/24)
Length of Visible Light 13h 17m
Length of Day
12h 20m
Waxing Gibbous, 90% of the Moon is Illuminated
Mar 24
Waxing Gibbous
Mar 27
Full
Apr 3
Last Quarter
Apr 10
New
Apr 18
First Quarter

Hourly Weather History & Observations

Time (CET) Temp. Windchill Dew Point Humidity Pressure Visibility Wind Dir Wind Speed Gust Speed Precip Events Conditions
12:00 AM 41.0 °F - 37.4 °F 87% 29.56 in - East 2.3 mph - N/A   Clear
12:30 AM 41.0 °F - 37.4 °F 87% 29.56 in - SW 2.3 mph - N/A   Clear
1:00 AM 41.0 °F 39.0 °F 37.4 °F 87% 29.56 in 6.2 mi West 3.5 mph - N/A   Scattered Clouds
1:30 AM 41.0 °F - 37.4 °F 87% 29.56 in 6.2 mi Calm Calm - N/A   Scattered Clouds
2:00 AM 39.2 °F - 37.4 °F 93% 29.56 in 6.2 mi Variable 1.2 mph - N/A   Partly Cloudy
2:30 AM 39.2 °F - 37.4 °F 93% 29.56 in - Calm Calm - N/A   Clear
3:00 AM 39.2 °F - 37.4 °F 93% 29.56 in - Variable 1.2 mph - N/A   Clear
3:30 AM 37.4 °F - 37.4 °F 100% 29.56 in - Variable 1.2 mph - N/A   Clear
4:00 AM 37.4 °F 34.9 °F 37.4 °F 100% 29.56 in - ENE 3.5 mph - N/A   Clear
4:30 AM 37.4 °F 33.8 °F 37.4 °F 100% 29.56 in - NE 4.6 mph - N/A   Clear
5:00 AM 37.4 °F - 35.6 °F 93% 29.56 in - NE 2.3 mph - N/A   Clear
5:30 AM 37.4 °F - 35.6 °F 93% 29.56 in - Calm Calm - N/A   Clear
6:00 AM 37.4 °F - 35.6 °F 93% 29.56 in - Calm Calm - N/A   Clear
7:00 AM 37.4 °F - 37.4 °F 100% 29.56 in - Variable 1.2 mph - N/A   Clear
7:30 AM 39.2 °F - 37.4 °F 93% 29.59 in 6.2 mi NNE 1.2 mph - N/A   Mostly Cloudy
8:00 AM 39.2 °F - 39.2 °F 100% 29.59 in 6.2 mi Calm Calm - N/A   Mostly Cloudy
8:30 AM 41.0 °F - 39.2 °F 93% 29.59 in - Calm Calm - N/A   Clear
9:00 AM 44.6 °F - 41.0 °F 87% 29.59 in - Calm Calm - N/A   Clear
9:30 AM 46.4 °F 44.3 °F 39.2 °F 76% 29.59 in - SW 4.6 mph - N/A   Clear
10:00 AM 50.0 °F - 42.8 °F 76% 29.59 in - SW 10.4 mph - N/A   Clear
10:30 AM 51.8 °F - 41.0 °F 67% 29.59 in - SW 12.7 mph - N/A   Clear
11:00 AM 53.6 °F - 37.4 °F 54% 29.59 in 6.2 mi WSW 16.1 mph - N/A   Partly Cloudy
11:30 AM 53.6 °F - 39.2 °F 58% 29.59 in 6.2 mi SW 18.4 mph - N/A   Partly Cloudy
12:00 PM 55.4 °F - 41.0 °F 58% 29.59 in 6.2 mi SW 18.4 mph - N/A   Partly Cloudy
12:30 PM 55.4 °F - 37.4 °F 51% 29.59 in 6.2 mi SW 18.4 mph - N/A   Partly Cloudy
1:30 PM 55.4 °F - 37.4 °F 51% 29.59 in 6.2 mi SW 18.4 mph - N/A   Partly Cloudy
2:00 PM 57.2 °F - 37.4 °F 48% 29.59 in 6.2 mi SW 18.4 mph - N/A   Partly Cloudy
2:30 PM 57.2 °F - 39.2 °F 51% 29.59 in 6.2 mi WSW 21.9 mph - N/A   Partly Cloudy
3:00 PM 55.4 °F - 37.4 °F 51% 29.59 in 6.2 mi SW 21.9 mph - N/A   Scattered Clouds
3:30 PM 57.2 °F - 37.4 °F 48% 29.59 in 6.2 mi WSW 15.0 mph - N/A   Scattered Clouds
4:00 PM 57.2 °F - 37.4 °F 48% 29.59 in 6.2 mi WSW 18.4 mph - N/A   Scattered Clouds
4:30 PM 57.2 °F - 39.2 °F 51% 29.59 in 6.2 mi WSW 15.0 mph - N/A   Scattered Clouds
5:00 PM 55.4 °F - 37.4 °F 51% 29.59 in 6.2 mi SW 15.0 mph - N/A   Scattered Clouds
5:30 PM 55.4 °F - 39.2 °F 54% 29.59 in 6.2 mi WSW 10.4 mph - N/A   Scattered Clouds
6:00 PM 57.2 °F - 39.2 °F 51% 29.59 in 6.2 mi West 11.5 mph - N/A   Scattered Clouds
6:30 PM 53.6 °F - 39.2 °F 58% 29.62 in 6.2 mi WSW 8.1 mph - N/A   Scattered Clouds
7:00 PM 50.0 °F - 41.0 °F 71% 29.65 in 6.2 mi Variable 2.3 mph - N/A Rain Light Rain Showers
7:30 PM 50.0 °F - 42.8 °F 76% 29.65 in 6.2 mi WNW 6.9 mph - N/A   Mostly Cloudy
8:00 PM 48.2 °F - 42.8 °F 82% 29.68 in 6.2 mi NW 11.5 mph - N/A   Mostly Cloudy
9:00 PM 46.4 °F - 41.0 °F 81% 29.71 in 6.2 mi SSW 1.2 mph - N/A   Mostly Cloudy
9:30 PM 46.4 °F - 41.0 °F 81% 29.71 in 6.2 mi Variable 2.3 mph - N/A   Mostly Cloudy
10:00 PM 46.4 °F - 41.0 °F 81% 29.74 in 6.2 mi Variable 2.3 mph - N/A   Scattered Clouds
10:30 PM 46.4 °F 42.9 °F 41.0 °F 81% 29.74 in 6.2 mi WNW 6.9 mph - N/A   Mostly Cloudy
11:00 PM 44.6 °F - 42.8 °F 93% 29.74 in 6.2 mi West 2.3 mph - N/A   Scattered Clouds
11:30 PM 41.0 °F 39.0 °F 39.2 °F 93% 29.74 in 6.2 mi SSW 3.5 mph - N/A   Scattered Clouds